Weather in Ershichy

Russia / Smolensk Oblast     53°40′21″N   32°45′17″E
В апреле 2022 года жителям России запретили посещать сайт meteo.paraplan.net по решению Генеральной прокуратуры. Аудитория сайта уменьшилась в 10 раз. Владельцы сайта не видят смысла в поддержке погодного сервера в таких условиях. Сайт будет закрыт в октябре.
temp.,
°C
wind,
m/s
gust,
m/s
humid.,
%
clouds,
%
prec.,
mm/h
press.,
hPa
HPBL,
m
3 october, mon
mon300:00+12e3898100 3.3 989444
03:00+11ese4897100 3.7 987537
06:00+8se4996100 0.0 986619
09:00+6ese61195100 0.1 985633
12:00+7sse61096100 0.4 985683
15:00+3ssw71497100 2.8 988724
18:00+3ssw71397100 4.0 991733
21:00+3ssw71297100 6.2 993993
4 october, tue
tue400:00+4ssw61297100 1.4 9951008
03:00+4ssw61197100 2.2 9971030
06:00+4ssw5997100 1.1 9991085
09:00+3ssw41097100 3.2 1001651
12:00+5ssw4897100 0.6 1003933
15:00+5sw4897100 1.3 1005908
18:00+5sw3696100 1.6 1007966
21:00+5wsw3897100 2.4 1008542
5 october, wed
wed500:00+5wsw3896100 0.1 1009416
03:00+6w3796100 1.1 1011999
06:00+6w4895100 0.5 1012692
09:00+6wnw4892100 0.8 1014978
12:00+8w478128 0.1 1016912
15:00+9w3881100 0.2 10171104
18:00+9w41088100 0.1 1018613
21:00+8wsw4996100 0.5 1019531
6 october, thu
thu600:00+8wsw3995100 0.0 1019368
03:00+8wsw399876 0.0 1019290
06:00+7sw279974 0.0 1019174
09:00+9sw399697 0.0 1019331
12:00+10sw399399 0.0 1018368
15:00+15wsw487275 0.0 1017853
18:00+13wsw411825 0.0 1018420
21:00+11w4139170 0.0 1019400
7 october, fri
fri700:00+12wnw511850 0.0 1021781
03:00+9wnw411940 0.0 1022461
06:00+7w3119614 0.0 1023384
09:00+8w4119030 0.0 1024437
12:00+12wnw577139 0.0 1025871
15:00+13wnw466698 0.0 10251131
18:00+11w367081 0.0 1025267
21:00+8wsw248935 0.0 102678